Regional Weather Roundup
Issued by NWS

Home | Current Version | Previous Version | Graphics & Text | Print | Product List | Glossary Off
Versions: 1 2 3 4 5 6 7 8 9 10 11 12 13 14 15 16 17 18 19 20 21 22 23 24 25 26 27 28 29 30 31 32 33 34 35 36 37 38 39 40 41 42 43 44 45 46 47 48 49 50

000
ASUS43 KDTX 192110
RWRMI
MICHIGAN HOURLY REGIONAL WEATHER ROUNDUP
NATIONAL WEATHER SERVICE DETROIT/PONTIAC MI
400 PM EST MON FEB 19 2018

NOTE: "FAIR" INDICATES FEW OR NO CLOUDS BELOW 12,000 FEET WITH NO
SIGNIFICANT WEATHER AND/OR OBSTRUCTION TO VISIBILITY.

MIZ047>049-052>055-059>063-066>070-074>076-081>083-192200-
SOUTHEAST LOWER MICHIGAN

CITY           SKY/WX    TMP DP  RH WIND       PRES   REMARKS
ADRIAN         LGT RAIN  50  50 100 SW17      29.91R VSB 1/2
ALMA           FOG       38  38 100 E6        29.88F VSB 1/4 WCI  34
ANN ARBOR      FOG       44  44 100 S6        29.88F VSB 1/4
BAD AXE        LGT RAIN  37  36  96 CALM      29.95S VSB 3/4
CARO           CLOUDY    40  39  97 E3        29.91F FOG
DETROIT CITY   LGT RAIN  47  47 100 S9        29.90F FOG
DETROIT        LGT RAIN  47  46  97 S12       29.90F VSB 3/4
FLINT          LGT RAIN  38  38 100 E6        29.90R VSB 3/4 WCI  33
GROSSE ILE     LGT RAIN  39  39  98 S8        29.91S VSB 1/4 WCI  34
HILLSDALE      RAIN      50  50 100 S8G17     29.87S
HOWELL         CLOUDY    45  45 100 S5        29.87S

CITY           SKY/WX    TMP DP  RH WIND       PRES   REMARKS
JACKSON        LGT RAIN  53  52  96 S14       29.86S FOG
LAMBERTVILLE   LGT RAIN  56  55  97 SW12G17   29.91F
LANSING        LGT RAIN  41  41 100 E6        29.86S VSB 3/4
LAPEER         DRIZZLE   39  38  97 E3        29.90F
MASON          FOG       45  42  89 SE6       29.86S VSB 1
MONROE         LGT RAIN  56  54  92 SW15G22   29.90S
MT. CLEMENS    LGT RAIN  37  37 100 E6        29.89F FOG     WCI  33
PONTIAC        LGT RAIN  41  41 100 SE3       29.88F FOG
PORT HOPE        N/A     36  34  92 SE5       29.94R WCI  32
PORT HURON     LGT RAIN  37  37 100 E3        29.92F
TRI CITIES     FOG       39  38  96 E7        29.90F VSB 1/2 WCI  34
MIDLAND        CLOUDY    39  38  98 E5        29.89F FOG
TROY           LGT RAIN  43  42  96 CALM      29.92F VSB 1/2
SAGINAW HB     FOG       37  36  93 E5        29.90F VSB 1   WCI  34
$$
MIZ043>046-050>051-056>058-064>065-071>073-077>080-192200-
SOUTHWEST LOWER MICHIGAN

CITY           SKY/WX    TMP DP  RH WIND       PRES   REMARKS
BATTLE CREEK   LGT RAIN  49  48  97 S15       29.84S VSB 1
BENTON HARBOR  CLOUDY    54  51  90 S13G21    29.81R
BIG RAPIDS     CLOUDY    38  35  90 E7        29.85S FOG     WCI  32
COLDWATER      DRIZZLE   52  52 100 SW12      29.86R
FREMONT        FOG       38  36  92 E8        29.83F VSB 1   WCI  32
HOLLAND        LGT RAIN  43  41  93 E6        29.82S FOG
GRAND RAPIDS   LGT RAIN  41  39  93 NE9       29.84R FOG
IONIA          LGT RAIN  39  39 100 NE8       29.85S WCI  34
KALAMAZOO      LGT RAIN  47  46  97 S12       29.83F VSB 3/4
LUDINGTON      DRIZZLE   38  38 100 CALM      29.84S
MARSHALL       DRIZZLE   50  50  98 S9        29.85R
MOUNT PLEASANT CLOUDY    40  38  95 E5        29.87F FOG
MUSKEGON       DRZL/FOG  41  39  93 E10       29.81F VSB 1
SOUTH HAVEN    CLOUDY    52  51  95 S9        29.79F
$$
MIZ016>042-192200-
NORTHERN LOWER MICHIGAN

CITY           SKY/WX    TMP DP  RH WIND       PRES   REMARKS
ALPENA         LGT RAIN  38  31  76 N8        29.96R WCI  32
BEAVER ISLAND  CLOUDY    35  30  82 N7        29.95R WCI  29
BELLAIRE       LGT SNOW  38  35  89 NE5       29.91R WCI  34
CADILLAC       RAIN      37  36  98 E7        29.86F WCI  31
CHARLEVOIX     CLOUDY    37  31  82 CALM      29.94F
FRANKFORT      DRIZZLE   38  36  91 CALM      29.89R
GAYLORD        LGT RAIN  37  32  82 NE5       29.90R WCI  33
GRAYLING       SLEET     36  36 100 E7        29.90R FOG     WCI  30
HARBOR SPRINGS CLOUDY    38  31  77 E13       29.93S WCI  30
HOUGHTON LAKE  CLOUDY    37  33  85 E6        29.91R FOG     WCI  32
MANISTEE       LGT RAIN  38  36  92 NE8       29.86S FOG     WCI  32
OSCODA         CLOUDY    39  31  72 CALM      29.93R
PELLSTON       CLOUDY    37  30  75 E10       29.94F WCI  30
ROGERS CITY    CLOUDY    33  30  89 N5        29.97S FOG     WCI  29
TRAVERSE CITY  LGT RAIN  37  33  85 NE7       29.90R WCI  32
$$
MIZ007>008-015-192200-
EASTERN UPPER MICHIGAN

CITY           SKY/WX    TMP DP  RH WIND       PRES   REMARKS
KINROSS        LGT SNOW  35  29  78 NE8       29.97S WCI  29
MACKINAC ISLAN LGT SNOW  33  29  87 E8        29.94F WCI  25
NEWBERRY       CLOUDY    29  28  96 N10       29.97R FOG     WCI  19
S. S. MARIE    LGT SNOW  38  29  70 NE5       29.97R WCI  34
MUNISING         N/A     25  23  92 N15       30.01F WCI  13
$$
MIZ004>006-011>014-085-192200-
CENTRAL UPPER MICHIGAN

CITY           SKY/WX    TMP DP  RH WIND       PRES   REMARKS
MANISTIQUE     CLOUDY    29  28  94 N16G22    29.95F WCI  17
ESCANABA       CLOUDY    28  23  81 N8        29.96F WCI  20
MENOMINEE      CLOUDY    28  22  78 NE14      29.93F WCI  17
SAWYER-GWINN   LGT SNOW  21  19  93 N22       29.98F VSB 3/4 WCI   5
$$
MIZ001>003-009>011-084-192200-
WESTERN UPPER MICHIGAN

CITY           SKY/WX    TMP DP  RH WIND       PRES   REMARKS
IRON MOUNTAIN  LGT SNOW  22  18  85 N8        29.93F VSB 1   WCI  12
HOUGHTON       LGT SNOW  17  10  74 NE8       30.06S WCI   7
COPPER HARBOR    N/A     17  13  84 E21       30.11F WCI   0
IRONWOOD       LGT SNOW  16  10  79 NE13      30.01F WCI   2
$$

ABBREVIATIONS USED IN REMARKS
   TC - TEMPERATURE IN CELSIUS
  WCI - WIND CHILL INDEX
   HX - HEAT INDEX
  VSB - VISIBILITY





USA.gov is the U.S. government's official web portal to all federal, state and local government web resources and services.